Tracking 17631 objects as of 4-May-2016
HD Live streaming from Space Station
objects crossing your sky now

NAVSTAR 19 (USA 54)

Track NAVSTAR 19 (USA 54) now!
NAVSTAR 19 (USA 54) is classified as:


NORAD ID: 20533
Int'l Code: 1990-025A
Perigee: 20,961.7 km
Apogee: 21,175.7 km
Inclination: 55.5 °
Period: 753.9 minutes
Semi major axis: 27439 km
RCS: 0.6015 m2 (medium)
Launch date: March 26, 1990
Source: United States (US)
Launch site: AIR FORCE EASTERN TEST RANGE (AFETR)
PRN:
Your satellite tracking list
Your tracking list is empty





NASA's NSSDC Master Catalog

Two Line Element Set (TLE):
1 20533U 90025A   16124.14282838 -.00000074  00000-0  00000+0 0  9990
2 20533  55.5177  20.6047 0038994 147.7328 157.1346  1.91038321184456
Source of the keplerian elements: AFSPC

N2YO: 273